QPF
0.00 0.00 0.00 0.00 0.00 0.00 0.00 0.00 0.00 0.00 0.00 0.00 0.00 0.00 0.00 0.00 0.00 0.00 0.00 0.00 0.00 0.00 0.00 0.00 0.00 0.00 0.00 0.00 0.00 0.00 0.04 0.01 0.00 0.02 0.05 0.00 0.03 0.10 0.04 0.00 0.00 0.00 0.00 0.00 0.00
0.00 0.00 0.00 0.00 0.00 0.00 0.00 0.00 0.00 0.00 0.00 0.00 0.00 0.00 0.00 0.00 0.00 0.00 0.00 0.00 0.00 0.00 0.00 0.00 0.00 0.00 0.00 0.00 0.00 0.01 0.09 0.00 0.00 0.00 0.05 0.08 0.01 0.04 0.02 0.00 0.00 0.00 0.00 0.00 0.00
0.00 0.00 0.00 0.00 0.00 0.00 0.00 0.00 0.00 0.00 0.00 0.00 0.00 0.00 0.00 0.00 0.00 0.00 0.00 0.00 0.00 0.00 0.00 0.00 0.00 0.00 0.00 0.00 0.00 0.00 0.05 0.00 0.00 0.00 0.01 0.09 0.05 0.01 0.01 0.00 0.00 0.00 0.00 0.00 0.00
0.00 0.00 0.00 0.00 0.00 0.00 0.00 0.00 0.00 0.00 0.00 0.00 0.00 0.00 0.00 0.00 0.00 0.00 0.00 0.00 0.00 0.00 0.00 0.00 0.00 0.00 0.00 0.00 0.00 0.02 0.00 0.00 0.00 0.00 0.00 0.00 0.04 0.10 0.11 0.03 0.00 0.00 0.00 0.00 0.00
0.00 0.00 0.00 0.00 0.00 0.00 0.00 0.00 0.00 0.00 0.00 0.00 0.00 0.00 0.00 0.00 0.00 0.00 0.00 0.00 0.00 0.00 0.00 0.00 0.00 0.00 0.00 0.00 0.00 0.00 0.00 0.00 0.00 0.00 0.00 0.00 0.01 0.04 0.09 0.00 0.00 0.00 0.00 0.00 0.00
0.00 0.00 0.00 0.00 0.00 0.00 0.00 0.00 0.00 0.00 0.00 0.00 0.00 0.00 0.00 0.00 0.00 0.00 0.00 0.00 0.00 0.00 0.00 0.00 0.00 0.00 0.00 0.00 0.00 0.00 0.00 0.00 0.00 0.00 0.00 0.00 0.00 0.04 0.05 0.00 0.00 0.00 0.00 0.00 0.00
0.00 0.00 0.00 0.00 0.00 0.00 0.00 0.00 0.00 0.00 0.00 0.00 0.00 0.00 0.00 0.00 0.00 0.00 0.00 0.00 0.00 0.00 0.00 0.00 0.00 0.00 0.00 0.00 0.00 0.00 0.00 0.00 0.00 0.00 0.00 0.00 0.04 0.05 0.01 0.02 0.01 0.00 0.00 0.00 0.00
0.00 0.00 0.00 0.00 0.00 0.00 0.00 0.00 0.00 0.00 0.00 0.00 0.00 0.00 0.00 0.00 0.00 0.00 0.00 0.00 0.00 0.00 0.00 0.00 0.00 0.00 0.00 0.00 0.00 0.00 0.00 0.00 0.00 0.00 0.00 0.02 0.14 0.03 0.00 0.02 0.00 0.00 0.00 0.00 0.00
0.00 0.00 0.00 0.00 0.00 0.00 0.00 0.00 0.00 0.00 0.00 0.00 0.00 0.00 0.00 0.00 0.00 0.00 0.00 0.00 0.00 0.00 0.00 0.00 0.00 0.00 0.00 0.00 0.00 0.00 0.00 0.00 0.00 0.00 0.00 0.00 0.03 0.05 0.00 0.00 0.00 0.00 0.00 0.00 0.00
0.00 0.00 0.00 0.00 0.00 0.00 0.00 0.00 0.00 0.00 0.00 0.00 0.00 0.00 0.00 0.00 0.00 0.00 0.00 0.00 0.00 0.00 0.00 0.00 0.00 0.00 0.00 0.00 0.00 0.00 0.00 0.00 0.00 0.00 0.00 0.00 0.00 0.00 0.00 0.00 0.00 0.00 0.00 0.00 0.00
0.00 0.00 0.00 0.00 0.00 0.00 0.00 0.00 0.00 0.00 0.00 0.00 0.00 0.00 0.00 0.00 0.00 0.00 0.00 0.00 0.00 0.00 0.00 0.00 0.00 0.00 0.00 0.00 0.00 0.00 0.00 0.00 0.00 0.00 0.00 0.00 0.00 0.00 0.00 0.00 0.00 0.00 0.00 0.00 0.00
0.00 0.00 0.00 0.00 0.00 0.00 0.00 0.00 0.00 0.00 0.00 0.00 0.00 0.00 0.00 0.00 0.00 0.00 0.00 0.00 0.00 0.00 0.00 0.00 0.00 0.00 0.00 0.00 0.00 0.00 0.00 0.00 0.00 0.00 0.00 0.00 0.00 0.00 0.00 0.00 0.00 0.00 0.00 0.00 0.00
0.00 0.00 0.00 0.00 0.00 0.00 0.00 0.00 0.00 0.00 0.00 0.00 0.00 0.00 0.00 0.00 0.00 0.00 0.00 0.00 0.00 0.00 0.00 0.00 0.00 0.00 0.00 0.00 0.00 0.00 0.00 0.00 0.00 0.00 0.00 0.00 0.00 0.00 0.00 0.00 0.00 0.00 0.00 0.00 0.00
0.00 0.00 0.00 0.00 0.00 0.00 0.00 0.00 0.00 0.00 0.00 0.00 0.00 0.00 0.00 0.00 0.00 0.00 0.00 0.00 0.00 0.00 0.00 0.00 0.00 0.00 0.00 0.00 0.00 0.00 0.00 0.00 0.00 0.00 0.00 0.00 0.00 0.00 0.00 0.00 0.01 0.00 0.00 0.00 0.00
0.00 0.00 0.00 0.00 0.00 0.00 0.00 0.00 0.00 0.00 0.00 0.00 0.00 0.00 0.00 0.00 0.00 0.00 0.00 0.00 0.00 0.00 0.00 0.00 0.00 0.00 0.00 0.00 0.00 0.00 0.00 0.00 0.00 0.00 0.00 0.00 0.00 0.00 0.00 0.00 0.01 0.01 0.00 0.00 0.00
0.00 0.00 0.00 0.00 0.00 0.00 0.00 0.00 0.00 0.00 0.00 0.00 0.00 0.00 0.00 0.00 0.00 0.00 0.00 0.00 0.00 0.00 0.00 0.00 0.00 0.00 0.00 0.00 0.00 0.00 0.00 0.00 0.00 0.00 0.00 0.00 0.00 0.00 0.00 0.00 0.00 0.00 0.00 0.00 0.00
0.00 0.00 0.00 0.00 0.00 0.00 0.00 0.00 0.00 0.00 0.00 0.00 0.00 0.00 0.00 0.00 0.00 0.00 0.00 0.00 0.00 0.00 0.00 0.00 0.00 0.00 0.00 0.00 0.00 0.00 0.00 0.00 0.00 0.00 0.00 0.00 0.00 0.00 0.00 0.00 0.00 0.00 0.00 0.00 0.00
0.00 0.00 0.00 0.00 0.00 0.00 0.00 0.00 0.00 0.00 0.00 0.00 0.00 0.00 0.00 0.00 0.00 0.00 0.00 0.00 0.00 0.00 0.00 0.00 0.00 0.00 0.00 0.00 0.00 0.00 0.00 0.00 0.00 0.00 0.00 0.00 0.00 0.00 0.00 0.00 0.00 0.00 0.00 0.00 0.00
0.00 0.00 0.00 0.00 0.00 0.00 0.00 0.00 0.00 0.00 0.00 0.00 0.00 0.00 0.00 0.00 0.00 0.00 0.00 0.00 0.00 0.00 0.00 0.00 0.00 0.00 0.00 0.00 0.00 0.00 0.00 0.00 0.00 0.00 0.00 0.00 0.00 0.00 0.00 0.00 0.00 0.00 0.00 0.00 0.00
0.00 0.00 0.00 0.00 0.00 0.00 0.00 0.00 0.00 0.00 0.00 0.00 0.00 0.00 0.00 0.00 0.00 0.00 0.00 0.00 0.00 0.00 0.00 0.00 0.00 0.00 0.00 0.00 0.00 0.00 0.00 0.00 0.00 0.00 0.00 0.00 0.00 0.00 0.00 0.00 0.00 0.00 0.00 0.00 0.00
0.00 0.00 0.00 0.00 0.00 0.00 0.00 0.00 0.00 0.00 0.00 0.00 0.00 0.00 0.00 0.00 0.00 0.00 0.00 0.00 0.00 0.00 0.00 0.00 0.00 0.00 0.00 0.00 0.00 0.00 0.00 0.00 0.00 0.00 0.00 0.00 0.00 0.00 0.00 0.00 0.00 0.00 0.00 0.00 0.00
0.00 0.00 0.00 0.00 0.00 0.00 0.00 0.00 0.00 0.00 0.00 0.00 0.00 0.00 0.00 0.00 0.00 0.00 0.00 0.00 0.00 0.00 0.00 0.00 0.00 0.00 0.00 0.00 0.00 0.00 0.00 0.00 0.00 0.00 0.00 0.00 0.00 0.00 0.00 0.00 0.00 0.00 0.00 0.00 0.00
0.00 0.00 0.00 0.00 0.00 0.00 0.00 0.00 0.00 0.00 0.00 0.00 0.00 0.00 0.00 0.00 0.00 0.00 0.00 0.00 0.00 0.00 0.00 0.00 0.00 0.00 0.00 0.00 0.00 0.00 0.00 0.00 0.00 0.00 0.00 0.00 0.00 0.00 0.00 0.00 0.00 0.00 0.00 0.00 0.00
0.00 0.00 0.00 0.00 0.00 0.00 0.00 0.00 0.00 0.00 0.00 0.00 0.00 0.00 0.00 0.00 0.00 0.00 0.00 0.00 0.00 0.00 0.00 0.00 0.00 0.00 0.00 0.00 0.00 0.00 0.00 0.00 0.00 0.00 0.00 0.00 0.00 0.00 0.00 0.00 0.00 0.00 0.00 0.00 0.00
0.00 0.00 0.00 0.00 0.00 0.00 0.00 0.00 0.00 0.00 0.00 0.00 0.00 0.00 0.00 0.00 0.00 0.00 0.00 0.00 0.00 0.00 0.00 0.00 0.00 0.00 0.00 0.00 0.00 0.00 0.00 0.00 0.00 0.00 0.00 0.00 0.00 0.00 0.00 0.00 0.00 0.00 0.00 0.00 0.00
0.00 0.00 0.00 0.00 0.00 0.00 0.00 0.00 0.00 0.00 0.00 0.00 0.00 0.00 0.00 0.00 0.00 0.00 0.00 0.00 0.00 0.00 0.00 0.00 0.00 0.00 0.00 0.00 0.00 0.00 0.00 0.00 0.00 0.00 0.00 0.00 0.00 0.00 0.00 0.00 0.00 0.00 0.00 0.00 0.00
0.00 0.00 0.00 0.00 0.00 0.00 0.00 0.00 0.00 0.00 0.00 0.00 0.00 0.00 0.00 0.00 0.00 0.00 0.00 0.00 0.00 0.00 0.00 0.00 0.00 0.00 0.00 0.00 0.00 0.00 0.00 0.00 0.00 0.00 0.00 0.00 0.00 0.00 0.00 0.00 0.00 0.00 0.00 0.00 0.00
MSLP
1018.63 1018.21 1017.82 1017.49 1017.17 1016.87 1016.56 1016.25 1016.00 1015.69 1015.47 1015.27 1015.07 1014.82 1014.57 1014.39 1014.19 1013.51 1011.49 1010.15 1010.40 1010.82 1010.75 1010.42 1010.26 1010.10 1009.92 1009.30 1009.44 1009.41 1008.06 1006.85 1006.97 1007.65 1009.55 1010.80 1010.99 1011.51 1011.17 1010.85 1010.81 1011.09 1011.27 1012.26 1013.73
1018.53 1018.19 1017.84 1017.47 1017.08 1016.75 1016.44 1016.11 1015.83 1015.61 1015.34 1015.11 1014.90 1014.67 1014.50 1014.29 1013.08 1011.29 1009.79 1010.25 1010.59 1010.63 1010.08 1009.61 1009.36 1009.56 1009.16 1008.84 1008.88 1008.66 1007.77 1006.99 1007.22 1007.40 1008.89 1010.37 1010.91 1011.03 1011.25 1011.16 1011.13 1011.53 1011.63 1012.86 1013.83
1018.39 1018.05 1017.75 1017.39 1017.00 1016.64 1016.26 1015.98 1015.66 1015.41 1015.23 1014.98 1014.76 1014.51 1014.31 1013.91 1011.83 1008.58 1009.13 1010.13 1010.43 1010.53 1009.60 1009.21 1009.11 1008.90 1008.35 1008.30 1008.31 1007.94 1007.39 1007.15 1007.34 1007.72 1008.49 1009.61 1010.59 1011.33 1010.93 1011.17 1010.99 1011.34 1012.02 1012.95 1013.63
1018.21 1017.89 1017.56 1017.25 1016.85 1016.50 1016.14 1015.75 1015.53 1015.25 1015.03 1014.84 1014.63 1014.45 1014.23 1013.20 1009.77 1008.69 1009.45 1009.99 1010.35 1009.81 1009.37 1009.14 1008.94 1008.45 1007.90 1007.82 1007.89 1007.96 1007.61 1007.60 1007.43 1007.89 1008.20 1008.78 1009.37 1010.07 1010.95 1011.14 1011.51 1011.53 1012.25 1012.84 1013.48
1018.05 1017.72 1017.33 1016.93 1016.53 1016.25 1015.91 1015.55 1015.25 1015.07 1014.84 1014.63 1014.43 1014.30 1013.95 1011.45 1008.65 1008.99 1009.66 1010.01 1010.25 1009.63 1009.02 1008.66 1008.45 1008.01 1007.49 1007.45 1007.84 1008.10 1007.37 1007.38 1007.34 1007.50 1007.89 1008.60 1009.09 1009.48 1010.16 1011.10 1011.48 1011.76 1012.48 1012.97 1013.46
1018.02 1017.55 1017.12 1016.66 1016.25 1015.92 1015.58 1015.31 1015.01 1014.74 1014.57 1014.39 1014.19 1014.09 1012.75 1009.80 1008.84 1009.19 1009.07 1009.47 1009.54 1009.33 1008.81 1008.54 1008.15 1007.95 1007.50 1007.59 1007.43 1007.13 1007.27 1006.99 1006.75 1006.81 1007.53 1008.05 1008.47 1008.89 1009.98 1010.73 1011.54 1012.05 1012.48 1012.96 1013.44
1017.76 1017.38 1016.93 1016.41 1016.01 1015.63 1015.28 1014.94 1014.61 1014.26 1014.11 1014.09 1013.95 1013.31 1011.49 1009.18 1009.02 1009.07 1009.09 1008.97 1009.24 1009.00 1008.72 1008.63 1008.51 1008.31 1007.49 1007.48 1007.55 1007.36 1006.83 1006.38 1006.48 1006.61 1007.15 1007.80 1008.37 1009.05 1010.17 1011.15 1011.71 1012.13 1012.59 1013.07 1013.48
1017.52 1017.05 1016.59 1016.08 1015.67 1015.33 1015.01 1014.60 1013.93 1013.27 1013.51 1013.73 1013.72 1012.48 1009.45 1009.29 1009.13 1009.23 1009.11 1009.25 1009.59 1009.12 1008.97 1009.36 1008.87 1008.12 1007.66 1007.52 1007.51 1006.86 1006.27 1005.27 1005.97 1006.42 1007.05 1007.15 1007.87 1009.38 1010.71 1011.58 1012.09 1012.17 1012.49 1013.12 1013.47
1017.17 1016.80 1016.30 1015.80 1015.37 1014.91 1014.78 1014.37 1013.40 1012.77 1013.15 1013.57 1012.88 1011.42 1008.79 1009.89 1009.08 1009.03 1009.01 1009.00 1009.23 1009.45 1009.55 1009.79 1009.10 1008.01 1007.92 1006.91 1006.22 1005.84 1004.64 1004.48 1005.64 1006.08 1006.48 1006.72 1007.33 1009.24 1010.72 1011.89 1012.23 1012.91 1012.55 1012.86 1013.37
1016.60 1016.36 1016.02 1015.37 1015.06 1014.75 1014.35 1014.33 1013.56 1013.09 1012.85 1012.49 1011.94 1010.75 1008.95 1008.13 1008.34 1008.96 1009.05 1008.96 1009.11 1009.32 1009.46 1009.50 1008.62 1007.79 1006.89 1005.79 1004.30 1004.27 1004.19 1004.15 1004.63 1005.96 1005.85 1006.24 1007.18 1009.02 1010.14 1011.10 1012.11 1013.05 1012.52 1012.46 1012.83
1016.33 1015.91 1015.47 1015.01 1014.76 1014.53 1013.85 1013.23 1012.90 1011.92 1011.25 1009.02 1008.69 1008.15 1007.54 1007.85 1008.46 1008.75 1009.00 1009.01 1009.11 1009.15 1008.29 1008.65 1007.75 1006.55 1005.79 1005.42 1004.56 1003.88 1004.27 1004.34 1005.12 1005.55 1005.41 1005.69 1006.35 1007.96 1009.17 1010.16 1011.36 1012.63 1012.05 1012.02 1012.29
1015.89 1015.42 1015.00 1014.58 1014.42 1014.17 1013.45 1010.91 1010.47 1010.45 1008.92 1008.35 1008.38 1008.19 1008.00 1007.38 1007.39 1008.23 1008.66 1008.32 1008.47 1007.95 1007.78 1008.27 1006.78 1006.06 1006.01 1005.84 1005.77 1005.13 1004.57 1004.45 1005.55 1005.65 1005.54 1005.66 1005.78 1007.03 1008.02 1009.03 1010.11 1011.58 1012.03 1011.51 1011.81
1015.35 1014.92 1014.61 1014.44 1014.28 1013.75 1011.69 1010.56 1010.44 1010.31 1008.47 1007.72 1007.59 1007.15 1006.95 1007.38 1006.55 1007.44 1007.99 1007.56 1007.70 1007.31 1007.44 1006.56 1005.95 1006.16 1006.63 1006.29 1005.87 1005.25 1004.56 1004.42 1004.69 1005.48 1005.60 1005.45 1005.42 1006.47 1007.62 1008.51 1009.80 1010.72 1010.80 1010.81 1011.13
1014.94 1014.61 1014.37 1014.08 1014.22 1011.84 1010.75 1010.66 1010.25 1010.23 1007.42 1007.10 1006.68 1006.27 1006.73 1006.20 1006.05 1006.90 1007.57 1007.21 1007.08 1006.95 1007.11 1006.40 1006.21 1006.54 1006.43 1005.96 1005.74 1004.81 1005.22 1005.15 1005.41 1005.16 1004.43 1005.11 1003.77 1005.58 1007.17 1008.28 1009.84 1010.38 1010.29 1010.23 1010.57
1014.65 1014.38 1014.15 1014.03 1011.97 1010.69 1010.76 1010.26 1010.03 1009.67 1006.41 1006.74 1006.16 1006.45 1005.75 1005.63 1005.69 1006.73 1007.01 1006.87 1006.58 1006.50 1007.04 1005.86 1005.94 1006.21 1005.78 1005.45 1005.73 1004.65 1005.65 1005.60 1005.40 1005.09 1004.83 1004.85 1004.35 1005.69 1006.78 1007.63 1009.64 1010.07 1010.11 1009.89 1010.67
1014.47 1014.21 1014.09 1012.97 1011.81 1010.69 1010.53 1010.11 1009.87 1007.59 1006.28 1006.27 1006.04 1005.81 1005.69 1005.38 1005.44 1006.43 1006.82 1007.19 1006.49 1006.48 1006.83 1005.69 1005.97 1005.91 1005.35 1005.51 1005.93 1005.67 1005.91 1005.82 1005.69 1004.90 1004.53 1003.97 1004.41 1004.99 1006.39 1008.29 1008.59 1008.79 1009.24 1009.40 1009.39
1014.15 1013.84 1013.79 1011.85 1010.22 1010.26 1009.93 1008.88 1007.38 1006.36 1007.37 1007.03 1006.18 1005.72 1005.21 1005.36 1005.75 1006.16 1006.58 1006.90 1006.49 1006.40 1006.21 1006.28 1006.04 1005.74 1005.58 1005.61 1005.81 1005.84 1005.07 1004.53 1004.52 1004.07 1003.23 1003.72 1005.05 1006.83 1008.10 1008.87 1009.11 1009.02 1008.79 1008.47 1008.86
1013.79 1013.55 1012.55 1011.29 1010.59 1010.19 1009.00 1007.67 1007.01 1008.29 1007.93 1007.87 1007.29 1005.98 1006.04 1006.32 1006.80 1006.59 1006.98 1007.27 1007.61 1006.82 1005.68 1005.87 1006.17 1006.00 1005.87 1005.24 1005.04 1005.21 1004.37 1002.66 1002.53 1002.50 1002.90 1004.62 1005.04 1007.45 1008.83 1009.47 1009.41 1009.06 1008.19 1008.04 1008.28
1013.31 1012.00 1010.24 1010.39 1010.50 1009.94 1008.15 1007.29 1009.09 1009.68 1009.62 1008.73 1007.55 1006.99 1007.13 1007.27 1007.22 1007.60 1007.89 1008.37 1009.00 1008.29 1006.65 1005.81 1006.31 1007.14 1006.93 1006.26 1005.68 1005.03 1004.41 1003.34 1002.77 1002.53 1002.21 1004.04 1006.65 1008.33 1009.46 1010.24 1010.80 1010.67 1009.26 1008.57 1008.35
1011.93 1010.51 1010.19 1010.08 1010.18 1008.91 1007.92 1009.17 1010.13 1010.99 1010.55 1009.47 1008.42 1008.73 1007.68 1008.03 1007.90 1008.02 1008.80 1010.30 1009.97 1009.97 1009.16 1007.19 1006.97 1007.49 1007.71 1007.25 1006.65 1005.50 1005.13 1004.65 1003.71 1002.43 1002.30 1003.43 1005.95 1008.18 1010.37 1011.44 1012.00 1012.67 1012.26 1010.59 1009.82
1011.47 1009.45 1010.09 1010.01 1009.74 1008.37 1008.50 1010.25 1010.96 1011.39 1011.29 1010.51 1010.15 1009.93 1009.89 1009.30 1009.18 1009.64 1010.46 1011.43 1011.49 1010.89 1010.13 1008.73 1007.43 1008.11 1007.98 1007.55 1006.51 1006.68 1005.74 1005.19 1003.65 1003.13 1002.53 1003.66 1006.85 1010.31 1011.82 1013.29 1013.93 1014.47 1014.65 1014.05 1013.32
1010.79 1009.09 1010.12 1010.01 1009.13 1009.60 1010.28 1011.48 1012.44 1011.64 1011.50 1011.50 1011.43 1011.01 1010.88 1010.79 1010.69 1010.89 1011.47 1012.10 1012.39 1011.63 1010.70 1010.22 1008.14 1007.81 1008.12 1009.52 1009.18 1007.83 1006.59 1005.78 1004.59 1004.13 1004.00 1004.13 1009.01 1011.74 1012.93 1014.67 1015.81 1016.27 1016.44 1016.27 1015.81
1010.96 1010.46 1010.39 1009.35 1009.14 1010.43 1011.74 1012.29 1012.69 1012.28 1012.25 1011.94 1012.00 1012.05 1012.07 1011.69 1011.71 1011.92 1012.23 1013.12 1012.78 1011.94 1011.49 1011.17 1009.89 1009.17 1009.53 1009.73 1009.73 1008.50 1008.35 1007.61 1006.61 1005.52 1004.64 1005.51 1009.59 1012.29 1013.80 1015.00 1016.71 1017.29 1017.68 1017.81 1017.69
1011.49 1010.37 1010.83 1010.95 1011.58 1011.22 1011.82 1012.58 1012.95 1013.54 1013.30 1013.21 1012.96 1012.65 1012.21 1012.15 1012.11 1012.42 1012.73 1013.16 1013.14 1012.60 1012.61 1011.67 1010.67 1010.29 1009.15 1008.70 1008.58 1009.28 1009.10 1008.60 1007.47 1006.13 1005.71 1007.23 1010.42 1012.79 1014.23 1015.28 1016.27 1017.56 1018.25 1018.61 1018.79
1012.31 1012.39 1012.89 1011.68 1012.11 1012.39 1012.59 1013.15 1013.29 1013.55 1013.88 1013.81 1013.67 1013.42 1013.03 1012.64 1012.67 1012.89 1012.99 1013.01 1013.01 1013.06 1012.48 1011.47 1010.68 1011.08 1011.12 1010.90 1010.44 1010.23 1010.01 1009.67 1008.77 1008.37 1007.68 1008.81 1010.85 1013.33 1014.91 1015.82 1016.66 1017.21 1017.89 1018.73 1019.16
1012.61 1012.59 1013.11 1013.09 1013.31 1012.81 1013.62 1013.78 1013.79 1014.21 1014.16 1014.33 1014.24 1014.26 1013.95 1013.94 1013.91 1013.66 1013.53 1013.40 1013.39 1013.17 1012.75 1012.29 1011.74 1011.66 1011.63 1011.84 1011.62 1011.18 1011.29 1011.21 1010.84 1010.51 1010.21 1010.84 1013.07 1015.01 1015.97 1016.50 1017.01 1017.64 1018.21 1018.73 1019.19
1014.41 1014.15 1013.18 1013.74 1013.19 1012.95 1014.00 1014.39 1014.75 1014.93 1015.40 1015.34 1015.31 1015.05 1015.21 1015.56 1015.29 1015.16 1014.93 1014.81 1014.71 1014.12 1013.53 1013.13 1012.49 1012.27 1011.34 1012.58 1012.43 1012.03 1011.53 1011.87 1011.93 1012.39 1012.00 1012.48 1014.25 1015.89 1016.43 1017.19 1017.75 1018.04 1018.46 1019.25 1019.63
Thickness
5699 5702 5705 5707 5710 5712 5715 5718 5721 5724 5727 5730 5734 5737 5740 5743 5747 5756 5766 5783 5785 5786 5788 5791 5792 5792 5794 5794 5798 5800 5782 5785 5790 5787 5774 5780 5774 5783 5794 5788 5794 5796 5794 5792 5785
5695 5697 5699 5702 5705 5708 5711 5715 5718 5721 5724 5728 5731 5735 5737 5740 5752 5763 5783 5782 5781 5784 5787 5785 5783 5788 5785 5790 5793 5785 5779 5789 5803 5805 5786 5777 5775 5783 5779 5781 5782 5784 5796 5791 5785
5690 5692 5694 5696 5699 5703 5707 5710 5714 5718 5721 5725 5728 5731 5735 5739 5754 5780 5785 5780 5779 5782 5791 5793 5791 5789 5784 5794 5792 5794 5781 5801 5802 5805 5801 5787 5777 5777 5783 5773 5785 5781 5784 5785 5784
5684 5686 5689 5692 5695 5697 5700 5705 5708 5713 5716 5720 5724 5727 5730 5740 5756 5779 5779 5777 5777 5783 5786 5783 5782 5778 5780 5778 5794 5778 5795 5798 5802 5803 5800 5791 5799 5789 5780 5780 5785 5793 5791 5786 5782
5677 5680 5682 5686 5690 5692 5695 5699 5703 5707 5711 5715 5718 5722 5730 5744 5763 5773 5772 5773 5773 5779 5778 5777 5774 5778 5774 5784 5785 5775 5792 5799 5804 5804 5802 5801 5792 5792 5789 5791 5793 5793 5789 5784 5783
5669 5672 5676 5679 5683 5686 5690 5694 5698 5702 5705 5709 5713 5716 5730 5741 5766 5766 5770 5771 5772 5772 5774 5779 5777 5785 5781 5777 5779 5794 5794 5798 5806 5806 5803 5794 5796 5800 5793 5798 5789 5787 5786 5786 5782
5664 5666 5670 5674 5677 5680 5684 5689 5693 5698 5701 5703 5706 5714 5725 5744 5759 5761 5765 5767 5770 5771 5766 5777 5781 5776 5785 5772 5788 5788 5782 5797 5799 5803 5797 5801 5783 5782 5793 5790 5783 5784 5785 5784 5782
5659 5662 5665 5668 5672 5674 5677 5682 5690 5697 5697 5698 5699 5711 5729 5745 5751 5752 5758 5757 5761 5769 5770 5771 5779 5778 5777 5786 5778 5777 5787 5779 5795 5798 5798 5802 5769 5782 5787 5777 5774 5781 5784 5781 5780
5653 5654 5657 5661 5664 5669 5671 5676 5684 5691 5690 5689 5698 5707 5723 5733 5735 5746 5752 5746 5753 5756 5760 5763 5767 5767 5770 5767 5767 5778 5775 5784 5778 5799 5795 5796 5779 5784 5786 5772 5771 5764 5778 5781 5779
5650 5650 5651 5656 5658 5660 5664 5665 5673 5679 5683 5687 5693 5697 5715 5721 5733 5736 5745 5747 5740 5742 5741 5744 5752 5750 5763 5769 5757 5769 5776 5786 5780 5785 5796 5790 5784 5781 5785 5780 5772 5762 5775 5781 5780
5645 5646 5648 5650 5652 5654 5659 5667 5673 5675 5681 5702 5705 5707 5717 5726 5728 5724 5733 5733 5733 5731 5728 5737 5736 5741 5761 5773 5778 5788 5781 5776 5780 5792 5790 5788 5789 5784 5788 5785 5775 5763 5777 5781 5782
5642 5643 5644 5646 5646 5648 5654 5673 5674 5675 5680 5694 5694 5698 5708 5720 5708 5713 5727 5719 5719 5717 5732 5723 5730 5756 5764 5765 5761 5767 5770 5772 5773 5785 5786 5783 5787 5790 5792 5789 5786 5771 5770 5782 5785
5640 5640 5639 5638 5638 5643 5659 5663 5666 5668 5672 5679 5686 5691 5700 5706 5706 5705 5716 5721 5713 5716 5719 5726 5743 5753 5743 5746 5748 5759 5765 5768 5769 5775 5784 5783 5779 5781 5788 5792 5784 5781 5786 5789 5787
5634 5633 5631 5631 5631 5647 5650 5654 5659 5659 5666 5664 5674 5685 5690 5703 5695 5713 5713 5713 5710 5708 5715 5725 5742 5732 5735 5739 5752 5748 5768 5766 5760 5763 5761 5786 5777 5780 5781 5779 5772 5773 5783 5788 5791
5627 5625 5623 5622 5639 5643 5641 5648 5652 5652 5648 5662 5666 5687 5693 5689 5694 5692 5713 5709 5699 5706 5711 5719 5726 5724 5730 5742 5751 5752 5761 5759 5761 5761 5759 5768 5774 5766 5783 5775 5758 5767 5778 5787 5786
5622 5620 5617 5625 5630 5638 5639 5644 5645 5647 5628 5651 5664 5664 5669 5681 5686 5688 5693 5704 5712 5705 5709 5719 5736 5733 5741 5748 5745 5751 5746 5750 5755 5761 5737 5773 5776 5769 5771 5762 5773 5784 5785 5789 5796
5621 5620 5619 5628 5635 5637 5640 5644 5641 5637 5647 5637 5647 5663 5670 5666 5669 5676 5676 5678 5682 5678 5685 5703 5711 5730 5740 5729 5740 5738 5739 5725 5722 5728 5743 5782 5763 5740 5758 5764 5769 5775 5785 5797 5800
5623 5622 5628 5632 5634 5636 5642 5640 5621 5622 5627 5638 5641 5659 5648 5657 5654 5665 5666 5665 5677 5689 5697 5688 5679 5710 5726 5731 5729 5731 5743 5747 5716 5731 5752 5763 5748 5736 5758 5765 5774 5784 5798 5803 5802
5628 5636 5642 5640 5635 5638 5640 5626 5606 5607 5616 5621 5639 5637 5638 5645 5652 5652 5653 5652 5657 5672 5681 5691 5679 5700 5710 5723 5731 5728 5724 5766 5746 5759 5767 5756 5737 5748 5753 5753 5755 5761 5786 5796 5803
5643 5643 5639 5642 5639 5644 5635 5602 5607 5606 5611 5623 5621 5622 5633 5635 5642 5648 5645 5639 5646 5655 5669 5685 5667 5689 5694 5711 5720 5728 5742 5716 5735 5722 5728 5752 5738 5722 5725 5732 5741 5738 5746 5778 5790
5644 5643 5641 5644 5643 5640 5621 5606 5607 5609 5609 5612 5612 5613 5611 5624 5631 5629 5624 5628 5633 5643 5657 5672 5683 5672 5688 5689 5703 5708 5714 5722 5746 5747 5744 5736 5724 5720 5718 5716 5721 5726 5729 5740 5751
5648 5637 5643 5644 5630 5624 5610 5603 5594 5609 5613 5608 5608 5610 5609 5614 5617 5616 5616 5618 5626 5637 5640 5653 5679 5668 5672 5673 5684 5699 5706 5718 5714 5715 5741 5757 5695 5712 5714 5707 5701 5706 5713 5722 5731
5637 5632 5641 5647 5625 5614 5606 5600 5599 5603 5603 5608 5605 5606 5606 5608 5605 5612 5615 5613 5622 5632 5635 5639 5648 5647 5650 5664 5670 5681 5687 5699 5711 5724 5727 5732 5689 5706 5704 5704 5690 5693 5697 5704 5712
5636 5628 5627 5627 5618 5616 5606 5599 5595 5596 5596 5598 5600 5608 5612 5610 5615 5606 5609 5614 5620 5627 5620 5635 5639 5634 5655 5665 5679 5665 5673 5685 5700 5710 5724 5719 5680 5684 5688 5691 5696 5686 5687 5692 5697
5632 5615 5609 5612 5609 5607 5606 5598 5593 5590 5595 5597 5593 5596 5601 5603 5607 5604 5610 5615 5621 5621 5628 5640 5633 5634 5634 5643 5653 5658 5662 5670 5679 5690 5697 5694 5684 5677 5678 5680 5682 5688 5690 5683 5684
5629 5622 5616 5607 5603 5607 5595 5592 5591 5588 5591 5585 5586 5590 5596 5591 5594 5594 5603 5606 5606 5617 5620 5629 5622 5630 5625 5630 5636 5643 5648 5652 5660 5669 5680 5683 5660 5665 5666 5671 5672 5674 5676 5677 5679
5620 5618 5623 5593 5608 5609 5595 5590 5584 5585 5580 5582 5581 5583 5581 5580 5587 5589 5592 5595 5596 5600 5606 5612 5617 5618 5628 5621 5627 5630 5646 5648 5652 5654 5664 5661 5652 5651 5652 5652 5654 5660 5665 5662 5664